Location: Dürabuch
(48.2640°N, 11.2185°E)
Time: 02:59:44
(UTC+00:00)

Cosmos 968 Rocket - Pass Details

Date: 23 May 2024
Orbit: 738 x 769 km, 74.0° (Epoch: 19 June)

Event Time Altitude Azimuth Distance (km) Brightness Sun altitude
Exits shadow 02:02:16 15° 219° (SW) 1,897 4.9 -11.3°
Maximum altitude 02:06:22 60° 296° (WNW) 853 3.7 -10.8°
Drops below altitude 10° 02:11:27 10° 17° (NNE) 2,271 7.1 -10.3°
Sets 02:13:52 0° 21° (NNE) 3,204 8.2 -10.0°
